Tracking 20624 objects as of 28-Mar-2020
HD Live streaming from Space Station
objects crossing your sky now

OPS 9321 (IDSCS 8)

Track OPS 9321 (IDSCS 8) now!
OPS 9321 (IDSCS 8) is classified as:


NORAD ID: 2645
Int'l Code: 1967-003A
Perigee: 33,536.2 km
Apogee: 33,821.9 km
Inclination: 4.2 °
Period: 1,329.4 minutes
Semi major axis: 40050 km
RCS: 0.3981 m2 (medium)
Launch date: January 18, 1967
Source: United States (US)
Launch site: AIR FORCE EASTERN TEST RANGE (AFETR)
aabbcc
Your satellite tracking list
Your tracking list is empty




NASA's NSSDC Master Catalog

Two Line Element Set (TLE):
1  2645U 67003A   20088.17092420 -.00000112  00000-0  00000+0 0  9990
2  2645   4.2031  58.1367 0035672  55.4545  45.4912  1.08317439209833
Source of the keplerian elements: AFSPC